Terug naar catalogus

NOAA 16 DEB

ActiefSSO
NORAD 41288·DEBRIS·🇺🇸 United States

Gelanceerd Sep 21, 2000 vanaf Vandenberg Space Force Base

Loading…

Volgende Passages (komende 24 uur)

TLE

VersSource: Space-Track

Epoch: Sep 13, 2026, 02:23 UTC

1 41288U 00055GQ  26256.09971919  .00004961  00000-0  16211-2 0  9992
2 41288  98.9001   8.0101 0020371 321.7050  38.2689 14.38906261552988

Volg NOAA 16 DEB in realtime met AllMySat

Download on the App Store